Weather in Kolomya

Ukraine / Ivano-Frankovsk District     48°31′33″N   25°02′16″E
temp.,
°C
wind,
m/s
gust,
m/s
humid.,
%
clouds,
%
prec.,
mm/h
press.,
hPa
HPBL,
m
5 march, fri
fri523:00+6w117994 0.4 101432
02:00+5ssw118797 1.2 101425
05:00+4ssw238399 0.3 101272
08:00+4nw238996 0.5 1012168
11:00+3nnw3596100 1.7 1012286
14:00+1nnw2497100 4.8 1012246
17:000nnw4699100 4.9 1014311
20:00−1n5898100 9.1 1018536
6 march, sat
sat623:00−2nnw5897100 2.8 1022583
02:00−3nw3793100 3.4 1025269
05:00−6w338890 0.0 102665
08:00−6wsw238245 0.0 102983
11:00−1nw57760 0.0 1029946
14:00+1nw58697 0.3 10291361
17:000nw487356 0.1 10291022
20:00−4w368266 0.1 1031175
7 march, sun
sun723:00−5wsw338336 0.0 103260
02:00−5sw238218 0.0 103153
05:00−6sw33780 0.0 102963
08:00−4sw34770 0.0 1028126
11:00+2wsw386219 0.0 1025800
14:00+4w485741 0.0 1023989
17:00+3wsw24640 0.0 1020226
20:00−2sw22750 0.0 102127
8 march, mon
mon823:00−4sw22781 0.0 102038
02:00−4sw12790 0.0 101928
05:00−4sw227724 0.0 101849
08:00−2sw247362 0.0 1017114
11:00+3wnw365674 0.0 10161126
14:00+5nw465866 0.1 10151390
17:00+2nw2587100 0.3 1015360
20:000nw4898100 1.7 1017495
9 march, tue
tue923:00−3wnw3987100 2.0 1020369
02:00−4wnw498580 2.0 1021243
05:00−5wnw388631 0.0 1021278
08:00−4nw369060 0.1 1022556
11:00−2nw4573100 0.3 10231091
14:00−1nnw3463100 0.3 10231246
17:00−1n235994 0.0 10231167
20:00−4ene227297 0.0 102567